Flag for U.S.A. Weather past 2 weeks in Concord, California, U.S.A.

Now
66 °F

Partly sunny.


Feels Like: 66 °F
Forecast: 53 / 76 °F
Wind: 8 mph from South

Location: Buchanan Field

Current Time: May 28, 2015 at 11:26:17 AM

Latest Report: May 28, 2015 at 10:53 AM


Visibility: 10 mi

Pressure: 29.98 "Hg

Humidity: 54%

Dew point: 49 °F

Location of ConcordLocation

Historic Weather in Concord — Graph

°F

Concord temperature yesterday

Maximum temperature yesterday: 74 °F (at 3:53 PM)
Minimum temperature yesterday: 55 °F (at 5:53 AM)
Average temperature yesterday: 62 °F

Past Weeks' High & Low Weather Summary

 TemperatureHumidityPressure
High74 °F (May 27, 3:53 PM)86% (May 15, 4:53 AM)30.10 "Hg (May 15, 4:53 AM)
Low50 °F (May 15, 4:53 AM)39% (May 13, 3:53 PM)29.74 "Hg (May 14, 5:53 PM)
Average60 °F66%29.93 "Hg
* Reported May 13 9:53 AM — May 28 9:53 AM, Concord, Weather by CustomWeather, © 2015

Note: Actual official high and low records may vary slightly from our data, if they occured in-between our weather recording intervals... More about our weather records

Advertising

Concord weather history for previous 24 hours

 ConditionsComfort  
Time TempWeatherWind HumidityBarometerVisibility
9:53 AM
Thu, May 28
62 °FScattered clouds.13 mph62%29.98 "Hg10 mi
8:53 AM59 °FSunny.14 mph69%29.99 "Hg10 mi
7:53 AM57 °FScattered clouds.14 mph74%29.98 "Hg10 mi
6:53 AM54 °FScattered clouds.12 mph83%29.97 "Hg10 mi
5:53 AM53 °FPassing clouds.13 mph86%29.96 "Hg10 mi
4:53 AM54 °FPassing clouds.14 mph83%29.95 "Hg10 mi
3:53 AM54 °FPassing clouds.12 mph83%29.95 "Hg10 mi
2:53 AM54 °FPassing clouds.16 mph83%29.94 "Hg10 mi
1:53 AM54 °FClear.12 mph83%29.95 "Hg10 mi
12:53 AM54 °FPassing clouds.14 mph83%29.95 "Hg10 mi
11:53 PM
Wed, May 27
56 °FClear.14 mph81%29.96 "Hg10 mi
10:53 PM56 °FClear.12 mph81%29.96 "Hg10 mi
9:53 PM57 °FClear.15 mph78%29.95 "Hg10 mi
8:53 PM59 °FCool.12 mph72%29.94 "Hg10 mi
7:53 PM62 °FSunny.13 mph65%29.93 "Hg10 mi
6:53 PM67 °FSunny.10 mph55%29.92 "Hg10 mi
5:53 PM70 °FSunny.18 mph49%29.92 "Hg10 mi
4:53 PM74 °FSunny.12 mph45%29.91 "Hg10 mi
3:53 PM74 °FSunny.13 mph43%29.92 "Hg10 mi
2:53 PM73 °FSunny.10 mph43%29.93 "Hg10 mi
1:53 PM71 °FSunny.12 mph45%29.94 "Hg10 mi
12:53 PM70 °FPassing clouds.12 mph49%29.95 "Hg10 mi
11:53 AM68 °FPassing clouds.7 mph51%29.96 "Hg10 mi
Weather by CustomWeather, © 2015

See weather overviewHow to use our weather pages